Temperature
22 23 23 23 23 23 23 23 22 23 23 25 25 25 25 25 24 23 22 22 21 20 20 20 19 19 19 19 19 19 18 18 18 17 17 17 17 16 16 16 15 15 15 15
23 24 24 24 24 24 24 24 24 24 24 26 26 26 25 25 24 23 23 22 21 21 20 20 19 19 19 19 19 18 18 18 18 17 17 17 16 16 16 15 15 15 15 15
23 24 24 23 24 25 24 25 24 24 25 26 26 25 25 25 24 24 23 22 21 21 20 20 19 19 19 19 19 18 18 18 18 17 17 17 16 16 16 15 15 15 15 15
22 23 22 24 26 26 25 25 25 25 26 26 26 26 25 25 24 24 23 22 22 21 20 20 20 19 19 19 19 18 18 18 18 17 17 17 16 16 16 15 15 15 15 15
23 22 23 25 26 26 25 25 26 26 26 26 26 26 25 25 24 24 23 23 22 21 21 20 20 19 19 19 18 18 18 18 18 17 17 17 16 16 15 15 15 15 14 14
22 22 22 24 26 26 25 24 26 26 26 26 26 24 24 24 24 24 23 23 22 22 21 21 20 20 19 19 18 18 18 18 18 17 17 17 16 16 15 15 14 14 14 14
22 22 23 25 25 25 23 23 25 25 25 25 25 24 24 24 24 23 23 22 22 22 21 21 20 20 19 19 19 19 18 18 18 17 17 17 16 16 15 15 14 14 14 13
22 22 22 24 24 24 24 25 25 25 24 24 24 24 24 23 23 22 22 22 22 21 21 20 20 20 19 19 19 18 18 18 18 17 17 16 16 16 15 15 14 14 13 13
23 23 23 24 23 23 23 24 24 24 24 24 23 23 23 23 22 22 21 21 21 21 20 20 20 19 19 19 19 18 18 18 17 17 17 16 16 16 15 15 14 14 13 13
23 24 24 23 23 23 23 23 23 23 23 23 23 23 22 22 21 21 21 21 20 20 20 20 19 19 19 19 18 18 18 17 17 17 16 16 16 15 15 15 14 14 13 13
23 23 23 23 22 22 22 22 22 22 22 22 22 22 22 21 21 20 20 20 20 20 19 19 19 19 18 18 18 18 17 17 17 16 16 16 16 15 15 15 15 14 13 13
22 23 23 22 22 21 21 21 21 21 21 21 21 21 21 21 20 20 20 19 19 19 19 19 18 18 18 18 18 17 17 17 16 16 16 16 15 15 14 14 14 14 13 13
22 21 21 21 21 20 20 20 20 20 20 20 20 20 21 20 20 19 19 19 19 18 18 18 18 18 17 17 17 17 17 17 16 16 16 15 15 15 14 14 14 13 13 13
20 20 20 20 20 19 19 19 19 20 20 20 20 20 20 20 19 19 19 18 18 18 18 18 17 17 17 17 17 16 16 16 16 16 15 15 15 14 14 14 14 13 13 13
19 19 19 19 19 19 18 18 18 19 19 19 19 19 19 19 19 18 18 18 18 18 17 17 17 17 17 16 16 16 16 15 15 15 15 14 14 14 14 13 13 13 13 12
18 18 18 18 18 18 18 17 17 17 17 17 17 17 18 18 18 18 18 18 17 17 17 17 17 16 16 16 16 15 15 15 15 15 14 14 14 13 13 13 13 12 12 12
17 17 17 17 17 17 17 17 16 16 16 16 16 16 17 17 17 17 17 17 17 17 16 16 16 16 16 15 15 15 15 14 14 14 14 13 13 13 13 12 12 12 12 12
16 16 16 16 16 16 16 16 16 16 15 15 15 15 16 16 16 16 16 16 16 16 15 15 15 15 15 15 15 14 14 14 13 13 13 13 12 12 12 12 12 11 11 11
14 14 14 15 15 15 15 15 15 15 15 14 14 15 15 15 15 15 15 15 15 15 15 15 15 15 15 14 14 14 13 13 13 12 12 12 12 12 11 11 11 11 10 10
13 13 13 13 14 14 13 14 14 14 14 14 14 14 14 14 14 14 14 14 14 14 14 14 14 14 14 14 13 13 13 12 12 12 12 11 11 11 11 11 10 10 10 10
12 12 12 12 12 13 13 13 13 13 13 13 13 13 13 13 13 13 13 13 13 13 13 13 13 13 13 13 13 12 12 12 11 11 11 11 11 11 10 10 10 10 10 9
11 11 11 11 12 12 12 12 12 12 12 12 12 12 12 12 12 12 12 12 12 12 12 12 12 12 12 12 12 11 11 11 11 11 10 10 10 10 10 10 9 9 9 9
10 11 11 11 11 11 11 11 11 11 11 11 11 11 11 11 11 11 11 11 11 11 11 12 11 11 11 11 11 11 10 10 10 10 10 10 9 9 9 9 9 9 8 8
10 10 10 10 10 10 10 10 10 10 10 10 10 10 10 10 10 10 10 10 10 10 10 10 10 10 10 10 10 10 9 9 9 9 9 9 9 9 8 8 8 8 8 8
9 9 9 10 10 10 10 10 9 9 9 9 9 9 9 9 9 9 9 9 9 9 9 9 9 9 9 9 8 8 8 8 8 8 8 8 8 8 8 8 7 7 7 7
8 8 8 8 8 8 8 9 8 8 8 8 8 8 8 8 8 8 8 8 8 8 8 8 8 8 8 7 7 7 7 7 7 7 7 7 7 7 7 7 7 6 6 6
7 7 8 8 8 8 8 8 7 7 7 7 7 7 7 7 7 7 7 7 7 7 7 7 7 7 6 6 6 6 6 6 6 6 6 6 6 6 6 6 6 5 5 5
Wind_Speed
8 8 9 9 11 12 12 11 7 6 6 5 6 8 10 12 13 14 15 14 14 13 12 12 11 11 11 10 10 9 8 7 6 6 5 5 5 3 3 3 4 4 5 6
8 9 9 9 11 13 14 12 11 10 9 4 4 7 9 12 13 14 14 15 15 14 14 13 12 11 12 11 10 9 8 7 7 6 6 6 6 4 3 3 4 5 5 5
8 8 8 9 11 13 12 12 10 9 8 4 5 6 10 11 12 13 14 14 14 14 14 13 14 13 13 12 11 10 9 8 7 7 7 6 6 5 4 4 4 4 4 5
7 8 8 6 5 6 7 7 7 7 5 3 4 5 6 8 11 12 13 13 14 13 12 12 13 12 12 12 12 11 10 9 9 8 7 7 6 6 5 4 4 3 3 4
6 7 7 5 3 4 5 5 6 6 5 4 3 4 5 7 9 11 11 11 12 13 13 13 13 14 13 13 12 11 11 10 10 9 8 8 7 6 5 5 4 4 3 4
6 6 5 1 5 4 1 3 1 2 2 2 4 4 3 5 7 7 8 9 11 12 12 12 13 13 13 13 12 12 11 11 10 9 9 8 8 6 5 4 4 4 3 3
8 7 4 2 4 2 2 1 3 2 2 2 2 2 3 5 5 5 6 7 9 11 11 11 12 12 12 12 12 10 10 10 9 9 9 8 7 5 5 5 4 4 4 3
8 7 3 3 2 1 4 5 4 4 3 2 2 3 5 5 5 6 6 6 8 9 9 10 11 12 12 11 10 10 11 10 9 8 8 7 7 6 5 5 5 4 3 3
2 1 3 3 4 5 5 5 6 5 5 4 2 2 2 5 5 6 7 7 6 8 9 9 10 10 11 9 11 12 11 10 9 8 7 7 7 6 5 5 5 4 4 4
1 2 3 4 4 4 4 5 6 5 4 4 3 1 2 5 5 5 6 7 7 8 9 9 9 8 8 10 12 12 11 10 9 9 8 7 6 6 5 5 5 5 4 4
2 1 1 2 3 3 4 4 4 4 4 3 3 2 2 4 5 5 5 6 7 8 8 8 8 8 8 11 12 11 10 9 8 8 8 7 6 4 5 5 6 5 4 4
2 2 1 2 4 5 4 4 3 3 3 2 2 1 1 3 4 5 5 5 6 7 7 8 9 9 9 10 11 11 10 9 7 7 7 6 6 4 3 5 7 7 6 5
2 4 4 5 5 5 4 4 4 3 2 1 1 0 1 3 4 4 5 6 7 7 8 8 8 8 9 10 10 10 9 9 7 7 7 7 7 7 5 3 3 5 7 7
4 3 2 3 3 4 4 4 4 3 3 2 1 1 1 2 3 4 5 5 6 6 7 7 8 8 8 9 9 9 8 9 8 6 7 7 7 6 6 6 5 4 6 9
3 3 3 3 3 3 3 3 3 2 3 3 2 2 1 2 3 3 3 4 5 5 6 7 7 7 8 9 9 9 7 6 6 6 6 6 6 5 5 6 5 5 4 6
1 2 2 1 2 2 3 3 3 3 3 3 2 2 1 1 2 2 3 4 5 5 5 6 6 6 7 8 8 6 6 9 8 6 6 6 6 5 5 5 5 5 6 6
1 1 1 1 1 2 2 3 2 2 2 2 2 1 1 1 2 2 2 3 3 4 4 5 5 6 7 7 7 6 5 7 10 7 6 6 5 6 6 5 5 5 5 7
2 1 1 2 2 2 2 2 2 2 2 2 2 1 1 1 2 2 2 3 3 3 3 3 4 5 6 6 6 5 5 5 6 6 5 5 5 5 5 5 6 6 5 6
2 3 2 2 3 3 3 2 2 2 2 1 1 1 0 1 1 2 2 2 3 3 2 2 4 5 5 6 5 4 5 5 5 5 5 6 6 5 5 5 6 6 6 5
2 2 2 3 2 2 3 2 2 1 1 1 1 1 1 1 1 1 2 2 2 2 2 2 3 3 4 4 5 4 4 5 5 4 5 5 5 5 5 5 5 5 5 5
1 1 2 2 2 2 2 2 2 1 1 1 1 1 0 1 1 1 2 2 1 2 2 2 2 2 3 3 4 3 3 4 4 4 4 4 5 5 5 5 5 5 4 4
1 1 1 1 1 2 2 2 2 1 2 2 1 2 2 2 2 2 2 1 2 3 2 2 2 3 2 1 2 2 3 3 3 3 3 4 4 4 4 4 4 4 3 3
1 1 1 2 1 1 1 1 1 1 1 1 1 1 1 1 1 1 1 1 2 3 2 1 1 1 1 1 2 2 3 3 3 3 3 3 3 3 3 4 4 3 3 3
2 2 2 2 1 1 0 1 1 1 2 2 1 1 1 1 1 2 2 3 3 2 1 1 1 1 2 1 2 2 2 2 2 2 2 2 2 3 3 3 3 3 4 4
2 2 2 2 1 1 1 2 2 2 2 1 2 2 2 2 1 1 2 2 2 2 1 1 1 1 1 1 1 1 1 1 1 2 2 2 2 3 3 3 3 3 3 4
1 1 2 2 2 2 1 1 1 1 1 1 1 1 1 1 2 1 1 1 1 1 1 1 1 1 1 1 1 2 2 2 2 2 2 2 3 3 3 3 4 3 3 3
2 1 1 2 2 2 2 2 2 1 1 1 1 1 1 2 1 1 1 1 0 0 1 1 1 1 2 2 2 2 2 2 2 2 2 2 3 3 3 3 3 3 3 3
Wind_Direction
240 237 227 223 224 218 227 241 258 271 256 220 180 170 167 165 164 165 168 168 168 168 168 166 166 168 162 157 154 156 157 159 158 149 139 123 114 112 101 97 92 67 65 68
263 241 235 233 225 228 232 239 246 255 264 225 190 173 171 171 170 171 173 173 173 173 173 172 170 171 160 156 156 156 159 160 153 147 136 132 134 131 110 92 83 78 78 74
278 259 238 246 231 225 227 231 238 246 256 213 195 184 177 174 175 177 177 176 175 177 178 177 175 174 165 161 160 162 163 158 152 150 143 147 142 129 123 114 98 91 90 92
270 268 255 252 213 201 218 236 238 249 264 243 203 170 166 168 174 180 178 176 176 177 177 175 173 171 163 159 163 167 166 159 156 153 147 146 142 145 149 141 130 126 121 123
259 258 268 254 196 187 208 240 238 237 240 220 184 159 173 183 183 182 180 178 177 178 176 174 174 170 164 164 168 171 168 161 159 157 156 157 160 164 163 155 152 153 151 152
269 271 267 321 105 105 207 255 274 239 217 176 155 174 178 166 167 169 167 169 171 172 172 173 171 167 167 169 172 174 166 160 159 160 161 165 167 166 154 147 152 149 151 164
256 266 270 73 105 144 229 37 35 53 55 106 142 134 118 120 135 149 153 159 162 166 169 168 164 164 170 172 174 165 151 149 152 157 160 161 160 153 147 148 154 164 166 169
231 242 243 100 136 68 36 25 39 54 57 66 79 76 102 121 132 142 144 152 157 160 160 157 159 164 173 174 161 145 142 146 150 154 161 157 147 151 152 152 163 180 179 182
228 143 99 84 72 56 25 16 29 38 39 37 60 65 103 134 142 148 152 156 158 154 153 155 160 167 174 163 146 143 145 150 153 153 152 149 154 162 164 164 174 188 189 193
258 123 108 90 72 61 42 18 16 22 30 26 29 52 125 140 144 152 159 157 156 152 157 163 166 167 163 147 145 148 154 159 161 162 160 160 164 171 174 178 185 193 193 195
241 248 128 105 83 49 39 29 19 14 18 17 10 24 118 140 145 152 151 147 154 165 168 168 164 164 157 151 151 155 160 164 168 166 164 167 167 173 178 184 184 184 191 183
239 314 340 70 68 44 28 18 14 8 5 10 5 354 109 132 140 150 153 156 162 167 169 172 168 169 163 157 157 162 168 171 171 168 166 167 165 170 167 173 174 173 167 166
2 20 42 49 49 36 25 12 4 355 350 350 16 359 120 125 137 150 161 169 173 174 176 174 169 168 163 161 164 169 172 171 169 171 172 173 173 174 180 193 196 198 195 188
38 38 55 42 31 26 17 6 356 346 356 18 42 54 86 112 138 157 172 176 172 170 173 172 168 169 165 163 167 173 171 172 169 170 173 179 181 182 181 182 194 219 219 210
20 15 28 36 27 22 9 358 353 359 18 28 41 57 82 113 147 161 163 157 155 161 168 166 168 171 165 165 170 176 173 170 171 171 173 177 179 184 189 191 190 190 184 200
349 20 19 17 354 350 353 355 357 4 16 23 29 27 46 83 123 136 137 143 157 170 173 170 170 168 163 163 168 176 178 175 170 171 176 180 184 191 197 197 197 195 195 192
240 236 262 288 312 331 344 350 345 350 2 9 7 13 53 92 109 121 135 148 160 161 157 161 165 163 165 167 170 174 175 178 178 182 187 188 189 197 199 198 202 206 207 195
349 4 340 316 311 320 325 333 344 350 359 357 3 14 167 173 168 161 152 147 143 141 156 164 163 162 166 164 169 174 178 183 187 192 191 192 195 197 198 202 207 211 212 206
28 25 11 2 357 351 344 344 345 340 350 13 4 331 232 192 169 159 151 153 149 153 152 137 160 158 153 157 163 170 181 186 190 193 193 197 203 206 206 208 211 213 210 204
30 25 16 1 356 348 341 334 337 353 21 38 48 41 42 52 115 133 135 136 133 135 128 132 153 147 147 157 168 179 186 191 195 198 199 200 205 211 214 217 218 218 216 211
13 0 352 343 344 339 334 339 351 23 43 43 48 43 45 50 71 101 117 118 92 82 99 132 133 118 121 141 175 191 195 199 200 203 208 211 214 217 219 222 225 223 219 216
325 324 325 328 337 334 342 356 3 34 62 59 42 42 48 52 59 64 60 76 82 85 84 98 102 100 92 123 192 208 213 214 210 209 212 217 221 224 226 227 226 225 222 218
330 318 309 304 303 319 346 3 12 46 82 82 72 74 68 47 82 106 74 48 76 83 68 75 88 110 134 209 225 229 230 231 230 227 224 222 223 224 228 232 229 228 227 224
346 336 334 331 327 327 22 32 40 60 76 69 63 58 75 75 56 54 61 60 61 73 45 61 62 257 239 244 243 237 240 242 240 240 240 236 234 235 236 235 233 232 233 234
358 1 11 13 5 21 45 48 54 64 72 72 63 49 52 67 77 68 71 60 50 51 46 39 2 303 252 255 259 263 266 259 261 268 266 265 261 255 251 248 243 240 236 235
354 5 22 21 17 17 13 30 42 43 57 69 63 53 56 66 65 60 84 87 64 14 345 294 275 274 286 300 314 311 303 301 299 289 284 280 274 270 263 257 257 248 241 236
359 10 40 36 20 17 18 21 18 6 4 15 21 29 30 27 22 11 11 38 51 353 334 326 322 319 323 321 316 310 308 307 304 298 296 295 294 288 283 276 267 255 249 244
Height
1483 1480 1481 1481 1482 1483 1488 1489 1494 1491 1487 1480 1476 1478 1481 1486 1491 1496 1501 1506 1511 1515 1520 1524 1528 1532 1536 1539 1542 1545 1548 1550 1553 1555 1557 1558 1560 1561 1562 1563 1564 1565 1565 1565
1479 1474 1474 1477 1477 1478 1480 1481 1483 1483 1481 1473 1474 1477 1480 1484 1488 1493 1498 1503 1508 1512 1517 1521 1525 1529 1533 1536 1539 1542 1545 1548 1551 1553 1555 1557 1558 1560 1561 1562 1563 1563 1564 1564
1483 1472 1474 1480 1471 1471 1473 1472 1476 1480 1476 1470 1473 1475 1478 1481 1485 1490 1495 1499 1504 1509 1513 1517 1522 1526 1529 1533 1536 1540 1543 1546 1549 1551 1553 1555 1556 1558 1559 1560 1561 1562 1562 1563
1481 1480 1491 1472 1458 1461 1466 1467 1467 1468 1467 1468 1470 1473 1476 1479 1483 1487 1492 1497 1501 1506 1510 1515 1519 1523 1527 1530 1534 1537 1541 1543 1546 1548 1550 1552 1554 1556 1557 1558 1559 1560 1561 1561
1479 1483 1478 1464 1457 1458 1464 1467 1463 1464 1465 1467 1469 1472 1476 1478 1481 1485 1489 1493 1497 1502 1507 1512 1516 1520 1524 1527 1531 1534 1538 1540 1543 1546 1548 1550 1552 1553 1555 1556 1557 1558 1559 1560
1477 1484 1485 1468 1457 1458 1463 1470 1462 1462 1464 1466 1468 1474 1476 1476 1479 1482 1486 1490 1495 1499 1504 1509 1513 1517 1521 1524 1528 1531 1534 1537 1540 1543 1545 1547 1549 1551 1553 1554 1555 1556 1557 1558
1478 1480 1472 1461 1459 1460 1474 1473 1463 1463 1464 1466 1468 1471 1474 1475 1478 1481 1484 1488 1492 1496 1501 1505 1510 1514 1518 1521 1524 1528 1531 1534 1537 1540 1543 1545 1547 1549 1550 1551 1553 1554 1555 1556
1472 1479 1477 1461 1460 1464 1468 1464 1464 1464 1466 1467 1469 1470 1472 1475 1477 1480 1482 1485 1489 1493 1497 1502 1506 1511 1515 1518 1522 1525 1528 1531 1534 1537 1540 1542 1544 1545 1547 1549 1550 1551 1552 1553
1462 1467 1463 1461 1463 1465 1466 1466 1466 1466 1467 1468 1469 1471 1473 1474 1476 1479 1481 1484 1488 1491 1495 1499 1503 1508 1512 1515 1519 1522 1525 1528 1531 1534 1536 1538 1540 1542 1544 1545 1546 1548 1549 1550
1458 1459 1460 1462 1464 1465 1466 1467 1467 1468 1468 1469 1470 1471 1472 1474 1476 1478 1480 1483 1486 1490 1493 1497 1501 1505 1509 1512 1515 1518 1522 1525 1528 1530 1533 1535 1537 1539 1540 1541 1543 1544 1545 1546
1458 1459 1460 1461 1463 1465 1466 1467 1468 1468 1468 1469 1470 1471 1472 1473 1475 1477 1479 1482 1485 1488 1491 1495 1498 1502 1506 1509 1512 1515 1518 1522 1524 1527 1529 1531 1533 1535 1536 1538 1539 1540 1542 1543
1459 1459 1460 1462 1463 1465 1466 1467 1468 1468 1469 1469 1470 1470 1471 1473 1474 1476 1478 1480 1483 1486 1489 1493 1496 1499 1503 1506 1508 1512 1515 1517 1520 1522 1525 1527 1529 1531 1532 1534 1535 1537 1538 1539
1457 1459 1460 1462 1463 1465 1466 1466 1467 1468 1468 1468 1469 1470 1471 1472 1473 1475 1477 1479 1481 1484 1487 1490 1493 1496 1499 1502 1505 1508 1510 1513 1516 1518 1520 1522 1524 1526 1528 1530 1531 1532 1534 1535
1457 1459 1461 1463 1464 1465 1465 1466 1466 1467 1467 1467 1468 1469 1470 1471 1472 1474 1476 1478 1480 1482 1485 1487 1490 1493 1495 1498 1501 1504 1507 1509 1511 1513 1516 1518 1519 1521 1523 1524 1526 1527 1529 1530
1457 1459 1461 1462 1463 1464 1465 1465 1465 1466 1466 1466 1467 1467 1468 1470 1471 1472 1474 1476 1478 1480 1482 1484 1487 1489 1492 1494 1497 1500 1503 1505 1507 1509 1511 1513 1515 1517 1518 1520 1521 1522 1523 1525
1457 1458 1460 1461 1462 1463 1464 1464 1465 1465 1465 1465 1466 1466 1467 1469 1470 1471 1473 1474 1475 1477 1479 1481 1483 1486 1488 1491 1493 1496 1498 1501 1503 1505 1507 1509 1510 1512 1513 1515 1516 1517 1518 1519
1456 1457 1459 1460 1461 1462 1463 1463 1464 1464 1464 1464 1465 1465 1466 1467 1468 1469 1471 1472 1473 1475 1476 1478 1480 1483 1485 1487 1489 1491 1494 1496 1498 1500 1502 1503 1505 1506 1508 1509 1510 1511 1512 1513
1455 1456 1458 1459 1460 1461 1461 1462 1462 1463 1463 1463 1463 1463 1464 1465 1466 1467 1469 1470 1471 1473 1474 1476 1478 1479 1481 1483 1485 1487 1489 1491 1493 1495 1497 1498 1500 1501 1502 1503 1505 1506 1506 1508
1453 1454 1455 1457 1458 1459 1459 1460 1460 1461 1461 1461 1461 1462 1462 1463 1464 1465 1466 1468 1468 1470 1471 1473 1475 1476 1478 1480 1482 1483 1485 1487 1489 1490 1492 1493 1495 1496 1497 1498 1499 1500 1501 1502
1451 1452 1453 1455 1456 1456 1457 1458 1458 1458 1459 1459 1459 1460 1460 1461 1462 1463 1464 1465 1466 1467 1468 1470 1472 1473 1475 1476 1478 1479 1481 1483 1484 1485 1487 1488 1489 1490 1491 1493 1493 1494 1495 1495
1450 1451 1452 1453 1453 1454 1455 1455 1456 1456 1456 1457 1457 1458 1458 1459 1460 1461 1461 1462 1464 1465 1466 1467 1468 1470 1471 1473 1474 1475 1477 1478 1479 1480 1482 1483 1484 1485 1486 1487 1487 1488 1488 1489
1449 1449 1450 1451 1451 1452 1453 1453 1453 1454 1454 1454 1455 1456 1456 1457 1458 1459 1460 1461 1461 1462 1463 1464 1465 1467 1468 1469 1470 1471 1473 1474 1475 1476 1477 1478 1479 1479 1480 1480 1481 1481 1482 1482
1447 1448 1448 1449 1449 1450 1450 1451 1451 1452 1452 1452 1453 1454 1454 1455 1456 1456 1457 1459 1459 1460 1460 1461 1462 1463 1464 1465 1466 1467 1468 1469 1470 1471 1472 1473 1473 1474 1474 1475 1475 1475 1475 1476
1445 1446 1446 1447 1447 1448 1448 1449 1450 1450 1450 1451 1452 1452 1453 1454 1454 1455 1456 1456 1457 1457 1458 1458 1459 1460 1461 1461 1462 1463 1464 1465 1465 1466 1467 1467 1468 1468 1468 1469 1469 1469 1469 1469
1444 1444 1444 1445 1446 1446 1447 1447 1448 1448 1449 1449 1450 1451 1452 1452 1453 1453 1453 1454 1454 1455 1455 1456 1456 1457 1457 1458 1458 1459 1459 1460 1460 1461 1461 1461 1462 1462 1462 1462 1462 1462 1462 1462
1443 1443 1443 1444 1445 1445 1446 1446 1446 1447 1447 1448 1448 1449 1450 1450 1451 1451 1451 1451 1452 1452 1453 1453 1453 1454 1454 1454 1454 1455 1455 1455 1456 1456 1456 1456 1456 1456 1456 1456 1456 1455 1455 1455
1442 1442 1442 1443 1444 1444 1444 1445 1445 1446 1446 1446 1447 1447 1448 1448 1448 1449 1449 1449 1449 1450 1450 1450 1450 1450 1450 1451 1451 1451 1451 1451 1451 1451 1451 1450 1450 1450 1450 1450 1449 1449 1448 1448